Regional Weather Roundup
Issued by NWS Cleveland, OH

Home | Current Version | Previous Version | Text Only | Print | Product List | Glossary On
Versions: 1 2 3 4 5 6 7 8 9 10 11 12 13 14 15 16 17 18 19 20 21 22 23 24 25 26 27 28 29 30 31 32 33 34 35 36 37 38 39 40 41 42 43 44 45 46 47 48 49 50
000
ASUS41 KCLE 012110
RWRCLE
OHIO REGIONAL WEATHER ROUNDUP
NATIONAL WEATHER SERVICE CLEVELAND, OH
500 PM EDT WED JUL 01 2015

NOTE: "FAIR" INDICATES FEW OR NO CLOUDS BELOW 12,000 FEET WITH NO
SIGNIFICANT WEATHER AND/OR OBSTRUCTIONS TO VISIBILITY.

OHZ001>008-015>018-024>027-034-035-043-044-012200-
   NORTHWEST OHIO

CITY           SKY/WX    TMP DP  RH WIND       PRES   REMARKS
DEFIANCE       MOSUNNY   74  56  53 W9        29.91S
FINDLAY        CLOUDY    75  57  53 W9        29.91R
TOLEDO EXPRESS PTSUNNY   74  54  49 NW9       29.90S
TOLEDO EXEC    MOSUNNY   74  55  51 W9        29.91R
LIMA           PTSUNNY   73  58  59 NW7       29.92R
$$

OHZ009>014-019>023-028>033-038-089-012200-
   NORTHEAST OHIO

CITY           SKY/WX    TMP DP  RH WIND       PRES   REMARKS
CLE-HOPKINS    MOSUNNY   75  60  59 NW7       29.91F
CLE-LAKEFRONT  SUNNY     71  61  70 NW6       29.89F
CUY CO. ARPT   MOSUNNY   72  57  60 NW9       29.91S
LORAIN-ELYRIA  SUNNY     73  60  63 VRB3      29.90F
ASHTABULA      PTSUNNY   72  59  63 VRB7      29.91S
AKRON-CANTON   PTSUNNY   75  59  57 SW12      29.90S
WOOSTER        MOSUNNY   74  60  61 W8        29.91F
MANSFIELD      MOSUNNY   74  57  55 VRB5      29.92F
YOUNGSTOWN     PTSUNNY   74  58  57 NW8       29.90S
$$

OHZ042-051>053-060>062-070>072-077>081-012200-
  SOUTHWEST OHIO

CITY           SKY/WX    TMP DP  RH WIND       PRES   REMARKS
CINC-COVINGTON CLOUDY    78  63  59 W3        29.91F
CINC-LUNKEN    SUNNY     79  60  52 W3        29.90F
HAMILTON       PTSUNNY   80  61  52 VRB3      29.92F
DAYTON         MOSUNNY   78  59  51 NW8       29.92F
WRIGHT-PAT AFB MOSUNNY   78  57  48 W5        29.91F
DAYTON GENERAL MOSUNNY   78  58  49 SW5       29.91F
WILMINGTON     MOSUNNY   77  55  46 VRB5      29.92F
$$

OHZ036-037-039>041-045>050-054>059-063>069-073>076-082>088-012200-
  CENTRAL AND SOUTHEAST OHIO

CITY           SKY/WX    TMP DP  RH WIND       PRES   REMARKS
COLUMBUS       MOSUNNY   78  59  51 NW9       29.90F
OSU AIRPORT    PTSUNNY   76  58  53 NW10      29.91S
BOLTON FIELD   MOSUNNY   75  61  60 NW6       29.92S
RICKENBACK AFB MOSUNNY   78  58  50 W5        29.91S
NEWARK         MOSUNNY   79  58  48 W9        29.90F
MARION         MOSUNNY   73  57  57 NW9       29.92S
LANCASTER      MOSUNNY   76  59  55 W6        29.92S
ZANESVILLE     NOT AVBL
NEW PHILLY     PTSUNNY   73  60  63 W3        29.91F
$$


USA.gov is the U.S. government's official web portal to all federal, state and local government web resources and services.